Home > Weather > Amstetten > Past weeks

Flag for Austria Past Weather in Amstetten, Lower Austria, Austria — Yesterday and Last 2 Weeks

Now
71 °F

Rain showers. Overcast.


Feels Like: 73 °F
Forecast: 54 / 74 °F
Wind: 6 mph from West

Location: Linz / Hoersching-Flughafen

Current Time: Aug 29, 2016 at 9:32:53 AM

Latest Report: Aug 29, 2016 at 9:00 AM


Visibility: 10 mi

Pressure: 30.06 "Hg

Humidity: 76%

Dew Point: 63 °F

Location of AmstettenLocation

Past Weather in Amstetten — Graph

°F

Amstetten Temperature Yesterday

Maximum temperature yesterday: 89 °F (at 6:00 PM)
Minimum temperature yesterday: 60 °F (at 7:00 AM)
Average temperature yesterday: 74 °F

High & Low Weather Summary for the Past Weeks

 TemperatureHumidityPressure
High89 °F (Aug 28, 6:00 PM)98% (Aug 16, 5:00 AM)30.42 "Hg (Aug 16, 5:00 AM)
Low53 °F (Aug 23, 6:00 AM)35% (Aug 20, 5:00 PM)29.77 "Hg (Aug 18, 5:00 PM)
Average68 °F71%30.07 "Hg
* Reported Aug 14 8:00 AM — Aug 29 8:00 AM, Amstetten, Weather by CustomWeather, © 2016

Note: Actual official high and low records may vary slightly from our data, if they occured in-between our weather recording intervals... More about our weather records

Advertising

Amstetten Weather History for the Previous 24 Hours

Scroll right to see more
 ConditionsComfort  
Time TempWeatherWind HumidityBarometerVisibility
8:00 AM
Mon, Aug 29
69 °FScattered clouds.5 mph86%30.03 "Hg10 mi
7:00 AM68 °FPartly sunny.N/A92%30.03 "Hg6 mi
6:00 AM67 °FOvercast.N/A92%29.98 "Hg7 mi
5:00 AM67 °FOvercast.N/A91%29.98 "Hg8 mi
4:00 AM69 °FPassing clouds.N/A88%29.99 "Hg11 mi
3:00 AM69 °FPassing clouds.N/A88%30.00 "Hg14 mi
2:00 AM71 °FPassing clouds.No wind84%29.98 "Hg17 mi
1:00 AM69 °FMild.N/A88%29.99 "Hg16 mi
12:00 AM71 °FPassing clouds.N/A86%29.99 "Hg17 mi
11:00 PM
Sun, Aug 28
71 °FMild.N/A82%29.98 "Hg19 mi
10:00 PM75 °FPassing clouds.N/A72%29.97 "Hg22 mi
9:00 PM77 °FWarm.N/A69%29.95 "Hg11 mi
8:00 PM81 °FClear.N/A60%29.93 "Hg25 mi
7:00 PM86 °FPassing clouds.N/A49%29.92 "Hg25 mi
6:00 PM89 °FPassing clouds.N/A45%29.93 "Hg22 mi
5:00 PM88 °FPassing clouds.N/A47%29.94 "Hg22 mi
4:00 PM88 °FPassing clouds.N/A49%29.96 "Hg18 mi
3:00 PM86 °FPassing clouds.N/A54%29.98 "Hg15 mi
2:00 PM84 °FPassing clouds.N/A55%30.00 "Hg13 mi
1:00 PM81 °FPassing clouds.N/A60%30.02 "Hg15 mi
12:00 PM78 °FPassing clouds.N/A69%30.04 "Hg9 mi
11:00 AM74 °FPassing clouds.N/A71%30.05 "Hg11 mi
10:00 AM72 °FSunny.N/A75%30.06 "Hg5 mi
9:00 AM69 °FSunny.N/A77%30.06 "Hg6 mi
Weather by CustomWeather, © 2016

See weather overviewHow to use our weather pages